Time,TemperatureF,DewpointF,PressureIn,WindDirection,WindDirectionDegrees,WindSpeedMPH,WindSpeedGustMPH,Humidity,HourlyPrecipIn,Conditions,Clouds,dailyrainin,SoftwareType,DateUTC
2013-03-14 00:10:00,30.3,26.0,29.73,WSW,257,0.0,-999.0,83,-99.99,,,0.00,weatherlink.com 1.10,2013-03-14 04:10:00,
2013-03-14 00:25:00,31.8,25.0,29.73,WNW,285,0.0,-999.0,76,-99.99,,,0.00,weatherlink.com 1.10,2013-03-14 04:25:00,
2013-03-14 00:40:00,32.1,24.0,29.73,West,261,0.0,-999.0,73,-99.99,,,0.00,weatherlink.com 1.10,2013-03-14 04:40:00,
2013-03-14 00:55:00,32.5,24.0,29.72,West,266,0.0,-999.0,71,-99.99,,,0.00,weatherlink.com 1.10,2013-03-14 04:55:00,
2013-03-14 01:10:00,31.9,24.0,29.73,WSW,252,0.0,-999.0,72,-99.99,,,0.00,weatherlink.com 1.10,2013-03-14 05:10:00,
2013-03-14 01:25:00,30.9,26.0,29.72,WSW,252,0.0,-999.0,82,-99.99,,,0.00,weatherlink.com 1.10,2013-03-14 05:25:00,
2013-03-14 01:40:00,30.5,24.0,29.72,West,264,0.0,-999.0,76,-99.99,,,0.00,weatherlink.com 1.10,2013-03-14 05:40:00,
2013-03-14 01:55:00,32.5,24.0,29.72,West,265,0.0,-999.0,72,-99.99,,,0.00,weatherlink.com 1.10,2013-03-14 05:55:00,
2013-03-14 02:10:00,31.0,25.0,29.72,West,269,0.0,-999.0,77,-99.99,,,0.00,weatherlink.com 1.10,2013-03-14 06:10:00,
2013-03-14 02:25:00,31.4,25.0,29.73,WSW,250,0.0,-999.0,76,-99.99,,,0.00,weatherlink.com 1.10,2013-03-14 06:25:00,
2013-03-14 02:40:00,31.1,25.0,29.73,West,275,0.0,-999.0,78,-99.99,,,0.00,weatherlink.com 1.10,2013-03-14 06:40:00,
2013-03-14 02:55:00,31.5,25.0,29.72,SW,232,0.0,-999.0,78,-99.99,,,0.00,weatherlink.com 1.10,2013-03-14 06:55:00,
2013-03-14 03:10:00,31.4,26.0,29.72,WSW,251,0.0,-999.0,79,-99.99,,,0.00,weatherlink.com 1.10,2013-03-14 07:10:00,
2013-03-14 03:25:00,30.8,25.0,29.72,WSW,244,0.0,-999.0,80,-99.99,,,0.00,weatherlink.com 1.10,2013-03-14 07:25:00,
2013-03-14 03:40:00,30.7,25.0,29.72,West,273,0.0,-999.0,80,-99.99,,,0.00,weatherlink.com 1.10,2013-03-14 07:40:00,
2013-03-14 03:55:00,31.4,26.0,29.71,West,259,0.0,-999.0,79,-99.99,,,0.00,weatherlink.com 1.10,2013-03-14 07:55:00,
2013-03-14 04:10:00,31.1,25.0,29.71,WSW,238,0.0,-999.0,79,-99.99,,,0.00,weatherlink.com 1.10,2013-03-14 08:10:00,
2013-03-14 04:25:00,30.7,25.0,29.71,SSE,167,0.0,-999.0,79,-99.99,,,0.00,weatherlink.com 1.10,2013-03-14 08:25:00,
2013-03-14 04:40:00,29.7,25.0,29.71,SSE,167,0.0,-999.0,82,-99.99,,,0.00,weatherlink.com 1.10,2013-03-14 08:40:00,
2013-03-14 04:55:00,29.2,24.0,29.70,SSE,167,0.0,-999.0,82,-99.99,,,0.00,weatherlink.com 1.10,2013-03-14 08:55:00,
2013-03-14 05:10:00,28.5,25.0,29.71,SSW,199,0.0,-999.0,88,-99.99,,,0.00,weatherlink.com 1.10,2013-03-14 09:10:00,
2013-03-14 05:25:00,29.5,25.0,29.71,West,278,0.0,-999.0,83,-99.99,,,0.00,weatherlink.com 1.10,2013-03-14 09:25:00,
2013-03-14 05:40:00,31.3,24.0,29.72,West,259,0.0,-999.0,73,-99.99,,,0.00,weatherlink.com 1.10,2013-03-14 09:40:00,
2013-03-14 05:55:00,31.8,22.0,29.72,WNW,293,0.0,-999.0,68,-99.99,,,0.00,weatherlink.com 1.10,2013-03-14 09:55:00,
2013-03-14 06:10:00,31.4,22.0,29.72,WSW,250,0.0,-999.0,67,-99.99,,,0.00,weatherlink.com 1.10,2013-03-14 10:10:00,
2013-03-14 06:25:00,31.0,21.0,29.72,WSW,248,0.0,-999.0,67,-99.99,,,0.00,weatherlink.com 1.10,2013-03-14 10:25:00,
2013-03-14 06:40:00,30.8,22.0,29.73,SSW,213,0.0,-999.0,70,-99.99,,,0.00,weatherlink.com 1.10,2013-03-14 10:40:00,
2013-03-14 06:55:00,31.1,20.0,29.73,West,271,0.0,-999.0,64,-99.99,,,0.00,weatherlink.com 1.10,2013-03-14 10:55:00,
2013-03-14 07:10:00,31.1,20.0,29.73,WNW,298,0.0,-999.0,63,-99.99,,,0.00,weatherlink.com 1.10,2013-03-14 11:10:00,
2013-03-14 07:25:00,31.1,19.0,29.73,WNW,282,0.0,-999.0,60,-99.99,,,0.00,weatherlink.com 1.10,2013-03-14 11:25:00,
2013-03-14 07:40:00,31.0,18.0,29.73,West,281,0.0,-999.0,60,-99.99,,,0.00,weatherlink.com 1.10,2013-03-14 11:40:00,
2013-03-14 07:55:00,31.1,19.0,29.74,West,272,0.0,-999.0,60,-99.99,,,0.00,weatherlink.com 1.10,2013-03-14 11:55:00,
2013-03-14 08:10:00,31.3,18.0,29.73,West,267,0.0,-999.0,59,-99.99,,,0.00,weatherlink.com 1.10,2013-03-14 12:10:00,
2013-03-14 08:25:00,31.5,19.0,29.74,NW,304,0.0,-999.0,60,-99.99,,,0.00,weatherlink.com 1.10,2013-03-14 12:25:00,
2013-03-14 08:40:00,31.6,19.0,29.74,West,272,0.0,-999.0,60,-99.99,,,0.00,weatherlink.com 1.10,2013-03-14 12:40:00,
2013-03-14 08:55:00,31.7,19.0,29.74,West,266,0.0,-999.0,59,-99.99,,,0.00,weatherlink.com 1.10,2013-03-14 12:55:00,
2013-03-14 09:10:00,31.8,18.0,29.75,NNW,336,0.0,-999.0,58,-99.99,,,0.00,weatherlink.com 1.10,2013-03-14 13:10:00,
2013-03-14 09:25:00,32.0,18.0,29.74,North,350,0.0,-999.0,57,-99.99,,,0.00,weatherlink.com 1.10,2013-03-14 13:25:00,
2013-03-14 09:40:00,32.0,17.0,29.74,WNW,288,0.0,-999.0,55,-99.99,,,0.00,weatherlink.com 1.10,2013-03-14 13:40:00,
2013-03-14 09:55:00,32.1,17.0,29.73,WNW,294,0.0,-999.0,54,-99.99,,,0.00,weatherlink.com 1.10,2013-03-14 13:55:00,
2013-03-14 10:10:00,32.2,17.0,29.73,WNW,290,0.0,-999.0,53,-99.99,,,0.00,weatherlink.com 1.10,2013-03-14 14:10:00,
2013-03-14 10:25:00,32.3,18.0,29.73,West,279,0.0,-999.0,56,-99.99,,,0.00,weatherlink.com 1.10,2013-03-14 14:25:00,
2013-03-14 10:40:00,32.9,17.0,29.72,WNW,300,0.0,-999.0,52,-99.99,,,0.00,weatherlink.com 1.10,2013-03-14 14:40:00,
2013-03-14 10:55:00,32.9,16.0,29.72,SW,235,0.0,-999.0,51,-99.99,,,0.00,weatherlink.com 1.10,2013-03-14 14:55:00,
2013-03-14 11:10:00,33.1,16.0,29.72,WNW,286,0.0,-999.0,50,-99.99,,,0.00,weatherlink.com 1.10,2013-03-14 15:10:00,
2013-03-14 11:25:00,34.3,16.0,29.71,SW,227,0.0,-999.0,47,-99.99,,,0.00,weatherlink.com 1.10,2013-03-14 15:25:00,
2013-03-14 11:40:00,34.1,15.0,29.71,WNW,294,0.0,-999.0,45,-99.99,,,0.00,weatherlink.com 1.10,2013-03-14 15:40:00,
2013-03-14 11:55:00,33.6,15.0,29.71,WNW,289,0.0,-999.0,47,-99.99,,,0.00,weatherlink.com 1.10,2013-03-14 15:55:00,
2013-03-14 12:10:00,33.3,16.0,29.70,West,277,0.0,-999.0,49,-99.99,,,0.00,weatherlink.com 1.10,2013-03-14 16:10:00,
2013-03-14 12:25:00,35.0,17.0,29.70,WSW,250,0.0,-999.0,48,-99.99,,,0.00,weatherlink.com 1.10,2013-03-14 16:25:00,
2013-03-14 12:40:00,34.7,15.0,29.70,West,271,0.0,-999.0,45,-99.99,,,0.00,weatherlink.com 1.10,2013-03-14 16:40:00,
2013-03-14 12:55:00,33.7,14.0,29.69,West,267,0.0,-999.0,44,-99.99,,,0.00,weatherlink.com 1.10,2013-03-14 16:55:00,
2013-03-14 13:10:00,33.5,14.0,29.69,WNW,296,0.0,-999.0,44,-99.99,,,0.00,weatherlink.com 1.10,2013-03-14 17:10:00,
2013-03-14 13:25:00,33.7,14.0,29.69,WNW,287,0.0,-999.0,44,-99.99,,,0.00,weatherlink.com 1.10,2013-03-14 17:25:00,
2013-03-14 13:40:00,33.5,15.0,29.69,SSE,148,0.0,-999.0,47,-99.99,,,0.00,weatherlink.com 1.10,2013-03-14 17:40:00,
2013-03-14 13:55:00,32.8,13.0,29.69,WNW,283,0.0,-999.0,45,-99.99,,,0.00,weatherlink.com 1.10,2013-03-14 17:55:00,
2013-03-14 14:10:00,33.5,15.0,29.68,WNW,283,0.0,-999.0,47,-99.99,,,0.00,weatherlink.com 1.10,2013-03-14 18:10:00,
2013-03-14 14:25:00,32.9,15.0,29.67,WNW,290,0.0,-999.0,47,-99.99,,,0.00,weatherlink.com 1.10,2013-03-14 18:25:00,
2013-03-14 14:40:00,32.8,14.0,29.67,SW,229,0.0,-999.0,47,-99.99,,,0.00,weatherlink.com 1.10,2013-03-14 18:40:00,
2013-03-14 14:55:00,32.5,15.0,29.68,WNW,301,0.0,-999.0,48,-99.99,,,0.00,weatherlink.com 1.10,2013-03-14 18:55:00,
2013-03-14 15:10:00,32.9,15.0,29.67,West,277,0.0,-999.0,48,-99.99,,,0.00,weatherlink.com 1.10,2013-03-14 19:10:00,
2013-03-14 15:25:00,32.6,14.0,29.67,SSE,155,0.0,-999.0,47,-99.99,,,0.00,weatherlink.com 1.10,2013-03-14 19:25:00,
2013-03-14 15:40:00,32.3,15.0,29.68,WNW,286,0.0,-999.0,50,-99.99,,,0.00,weatherlink.com 1.10,2013-03-14 19:40:00,
2013-03-14 15:55:00,33.2,15.0,29.68,SW,219,0.0,-999.0,47,-99.99,,,0.00,weatherlink.com 1.10,2013-03-14 19:55:00,
2013-03-14 16:10:00,32.8,15.0,29.67,WNW,296,0.0,-999.0,48,-99.99,,,0.00,weatherlink.com 1.10,2013-03-14 20:10:00,
2013-03-14 16:25:00,32.2,15.0,29.67,West,263,0.0,-999.0,49,-99.99,,,0.00,weatherlink.com 1.10,2013-03-14 20:25:00,
2013-03-14 16:40:00,32.5,15.0,29.68,WNW,301,0.0,-999.0,48,-99.99,,,0.00,weatherlink.com 1.10,2013-03-14 20:40:00,
2013-03-14 16:55:00,31.8,14.0,29.68,WNW,300,0.0,-999.0,47,-99.99,,,0.00,weatherlink.com 1.10,2013-03-14 20:55:00,
2013-03-14 17:10:00,31.9,14.0,29.69,WNW,294,0.0,-999.0,47,-99.99,,,0.00,weatherlink.com 1.10,2013-03-14 21:10:00,
2013-03-14 17:25:00,31.5,14.0,29.70,West,280,0.0,-999.0,48,-99.99,,,0.00,weatherlink.com 1.10,2013-03-14 21:25:00,
2013-03-14 17:40:00,30.6,13.0,29.70,West,273,0.0,-999.0,49,-99.99,,,0.00,weatherlink.com 1.10,2013-03-14 21:40:00,
2013-03-14 17:55:00,29.4,13.0,29.71,West,281,0.0,-999.0,51,-99.99,,,0.00,weatherlink.com 1.10,2013-03-14 21:55:00,
2013-03-14 18:10:00,28.7,13.0,29.72,West,274,0.0,-999.0,51,-99.99,,,0.00,weatherlink.com 1.10,2013-03-14 22:10:00,
2013-03-14 18:25:00,28.2,12.0,29.72,West,277,0.0,-999.0,52,-99.99,,,0.00,weatherlink.com 1.10,2013-03-14 22:25:00,
2013-03-14 18:40:00,27.8,13.0,29.73,WNW,295,0.0,-999.0,53,-99.99,,,0.00,weatherlink.com 1.10,2013-03-14 22:40:00,
2013-03-14 18:55:00,27.5,12.0,29.73,WNW,283,0.0,-999.0,53,-99.99,,,0.00,weatherlink.com 1.10,2013-03-14 22:55:00,
2013-03-14 19:10:00,27.3,12.0,29.74,WNW,286,0.0,-999.0,53,-99.99,,,0.00,weatherlink.com 1.10,2013-03-14 23:10:00,
2013-03-14 19:25:00,27.1,12.0,29.75,WSW,255,0.0,-999.0,53,-99.99,,,0.00,weatherlink.com 1.10,2013-03-14 23:25:00,
2013-03-14 19:40:00,27.1,11.0,29.76,WNW,295,0.0,-999.0,52,-99.99,,,0.00,weatherlink.com 1.10,2013-03-14 23:40:00,
2013-03-14 19:55:00,26.8,10.0,29.76,NW,317,0.0,-999.0,50,-99.99,,,0.00,weatherlink.com 1.10,2013-03-14 23:55:00,
2013-03-14 20:10:00,26.4,10.0,29.77,WNW,288,0.0,-999.0,51,-99.99,,,0.00,weatherlink.com 1.10,2013-03-15 00:10:00,
2013-03-14 20:25:00,25.9,10.0,29.77,WNW,291,0.0,-999.0,51,-99.99,,,0.00,weatherlink.com 1.10,2013-03-15 00:25:00,
2013-03-14 20:40:00,25.4,9.0,29.78,WNW,291,0.0,-999.0,49,-99.99,,,0.00,weatherlink.com 1.10,2013-03-15 00:40:00,
2013-03-14 20:55:00,24.8,8.0,29.78,North,350,0.0,-999.0,50,-99.99,,,0.00,weatherlink.com 1.10,2013-03-15 00:55:00,
2013-03-14 21:10:00,24.4,9.0,29.79,North,355,0.0,-999.0,51,-99.99,,,0.00,weatherlink.com 1.10,2013-03-15 01:10:00,
2013-03-14 21:25:00,24.2,9.0,29.79,WNW,284,0.0,-999.0,53,-99.99,,,0.00,weatherlink.com 1.10,2013-03-15 01:25:00,
2013-03-14 21:40:00,23.8,9.0,29.79,West,270,0.0,-999.0,53,-99.99,,,0.00,weatherlink.com 1.10,2013-03-15 01:40:00,
2013-03-14 21:55:00,23.5,9.0,29.79,WNW,293,0.0,-999.0,54,-99.99,,,0.00,weatherlink.com 1.10,2013-03-15 01:55:00,
2013-03-14 22:10:00,23.4,8.0,29.79,WSW,252,0.0,-999.0,53,-99.99,,,0.00,weatherlink.com 1.10,2013-03-15 02:10:00,
2013-03-14 22:25:00,23.3,8.0,29.80,West,267,0.0,-999.0,53,-99.99,,,0.00,weatherlink.com 1.10,2013-03-15 02:25:00,
2013-03-14 22:40:00,23.1,9.0,29.79,NW,309,0.0,-999.0,54,-99.99,,,0.00,weatherlink.com 1.10,2013-03-15 02:40:00,
2013-03-14 22:55:00,22.8,9.0,29.80,WNW,290,0.0,-999.0,55,-99.99,,,0.00,weatherlink.com 1.10,2013-03-15 02:55:00,
2013-03-14 23:10:00,22.7,9.0,29.79,West,271,0.0,-999.0,56,-99.99,,,0.00,weatherlink.com 1.10,2013-03-15 03:10:00,
2013-03-14 23:25:00,22.5,9.0,29.80,WNW,283,0.0,-999.0,57,-99.99,,,0.00,weatherlink.com 1.10,2013-03-15 03:25:00,
2013-03-14 23:40:00,22.3,9.0,29.80,WNW,303,0.0,-999.0,57,-99.99,,,0.00,weatherlink.com 1.10,2013-03-15 03:40:00,
2013-03-14 23:55:00,22.2,9.0,29.80,WNW,285,0.0,-999.0,58,-99.99,,,0.00,weatherlink.com 1.10,2013-03-15 03:55:00,